Theta_e
313 305 305 305 306 306 307 307 309 310 311 312 311 311 311 312 313 312 312 314 312 310 309 307 306 305 305 305 306 306 302 303 305 304 306 305 305 306 307 307 307 308 308 309 309
315 317 312 305 306 306 306 306 307 308 309 310 311 311 311 311 311 311 312 312 312 311 309 308 305 305 305 305 306 303 301 303 303 302 304 305 305 305 306 305 306 307 307 307 307
315 316 316 317 307 306 306 306 307 307 307 308 309 311 311 311 310 311 311 311 310 310 310 306 305 305 305 305 305 302 302 302 304 305 305 305 305 306 304 304 306 306 306 306 307
311 311 313 314 316 309 306 307 308 308 308 309 309 310 311 310 309 310 311 311 308 309 307 305 306 305 304 304 305 304 303 303 305 306 306 305 305 304 305 306 307 306 306 305 306
298 306 310 312 312 316 308 308 311 312 311 312 312 311 309 307 309 310 310 310 310 309 305 305 306 305 304 304 305 303 304 305 305 305 306 306 304 304 305 308 306 306 306 305 305
297 297 298 304 310 311 313 308 311 313 312 313 313 312 307 305 309 310 310 310 306 305 305 305 305 306 306 306 305 305 304 304 306 305 305 304 303 304 305 306 306 305 305 304 304
300 298 298 298 299 308 313 309 312 313 313 313 311 311 306 309 308 309 309 308 306 305 305 305 305 306 305 304 304 304 304 303 304 304 303 303 304 300 305 305 304 303 305 305 306
301 302 303 302 311 313 313 310 312 312 313 313 310 307 306 310 309 309 308 307 306 305 305 305 305 305 305 304 304 304 304 306 306 303 304 304 306 305 303 304 304 305 305 305 305
302 303 304 306 313 313 314 312 313 314 313 313 310 306 305 307 308 308 307 307 305 304 304 304 304 304 303 303 304 305 307 305 306 303 302 303 305 303 303 304 304 304 303 303 304
302 303 304 306 309 312 313 313 312 315 313 309 306 305 307 307 307 306 305 304 303 303 303 303 303 301 300 303 309 307 306 305 306 304 302 302 301 301 302 303 301 301 301 301 301
301 302 304 306 307 307 309 311 310 310 308 309 309 310 307 305 305 304 304 302 303 302 301 302 302 302 303 304 306 306 306 307 305 302 303 303 301 302 301 300 299 299 299 299 299
302 302 302 304 304 304 306 307 310 307 309 309 311 311 307 306 303 302 303 303 303 302 303 303 302 303 305 305 306 305 306 305 304 302 303 302 302 301 300 299 299 299 298 298 298
301 301 301 302 301 303 303 305 306 306 307 310 311 309 308 305 306 302 302 303 303 304 304 305 306 304 306 305 305 305 305 304 306 303 301 300 302 301 299 297 297 298 298 298 298
299 300 299 299 300 300 299 303 305 306 307 309 311 310 309 306 305 306 303 303 303 304 304 306 305 305 305 306 305 308 303 303 303 304 305 300 302 301 300 298 297 298 297 297 297
299 298 299 299 298 297 298 298 302 305 308 308 309 306 308 306 306 304 303 303 305 305 306 307 303 305 305 305 305 307 302 302 302 302 298 302 298 302 298 299 297 296 297 297 297
297 298 299 298 298 297 296 296 302 305 307 308 301 302 304 304 300 300 302 303 301 303 304 303 301 303 304 301 303 301 303 302 301 301 300 300 302 302 299 297 297 295 297 297 297
297 297 299 298 297 296 296 300 304 305 305 304 303 301 304 303 301 301 302 303 304 306 306 304 304 302 301 303 302 303 306 307 307 303 304 298 300 302 298 295 294 294 296 297 297
295 296 297 298 298 296 295 301 302 301 306 299 299 301 305 302 302 301 302 304 304 305 307 307 306 303 302 304 304 304 307 310 310 301 300 299 300 303 293 290 294 296 296 296 297
295 296 296 299 298 296 295 300 298 299 304 301 301 303 304 303 302 302 303 304 304 304 310 307 309 300 301 301 303 304 306 301 298 292 295 296 297 297 295 291 291 295 296 295 296
296 295 295 296 296 294 296 298 296 303 301 300 303 301 303 302 303 302 302 302 302 303 304 305 304 303 300 300 300 302 300 306 300 301 300 295 294 299 295 292 290 288 295 295 296
295 295 295 295 295 295 295 295 299 301 303 301 301 303 302 302 304 302 303 302 301 302 304 301 303 302 301 301 302 301 302 300 301 296 296 295 298 288 290 291 290 289 295 296 296
295 294 295 298 297 296 296 296 301 302 303 304 303 303 303 302 304 302 304 303 302 303 305 302 302 300 297 293 296 297 297 299 301 296 289 291 297 281 281 285 290 293 295 295 295
294 294 295 297 297 296 291 298 300 300 301 303 304 304 303 304 304 303 303 301 301 303 304 301 302 301 300 300 298 300 297 294 294 295 292 297 298 284 283 282 290 294 295 295 294
295 295 295 296 297 297 293 293 294 299 301 303 303 303 301 302 302 303 303 302 299 301 302 302 301 295 301 300 297 298 298 297 299 294 292 295 293 292 289 287 287 293 295 294 295
294 296 294 295 294 295 294 297 297 294 299 300 302 302 303 303 301 302 302 301 301 301 299 301 302 298 294 292 294 291 299 299 300 294 303 293 296 295 293 290 290 295 294 294 294
295 294 295 295 296 295 296 295 298 299 300 301 301 302 300 302 302 301 301 302 302 301 300 297 298 298 296 292 289 294 294 293 298 291 291 285 291 290 283 288 289 293 294 293 293
294 295 296 295 296 295 297 297 296 297 299 301 300 301 300 299 298 297 299 299 300 300 300 298 295 300 300 291 294 297 290 293 294 293 299 297 298 286 283 278 288 292 293 294 291
Wind_Speed
20 19 17 17 17 17 16 16 15 15 14 12 12 13 15 16 15 17 20 15 12 14 11 9 8 8 9 8 6 6 3 3 5 6 4 1 0 2 2 3 3 4 5 6 6
22 22 21 21 20 19 19 19 16 15 15 15 13 14 14 16 18 22 21 17 15 13 13 10 9 9 6 5 4 3 4 9 5 5 4 1 1 4 2 1 3 8 11 11 9
20 22 23 22 23 22 22 21 19 17 15 14 15 15 14 14 17 12 14 19 19 14 13 11 10 10 5 5 6 4 5 4 4 7 4 2 2 4 2 2 9 4 5 8 10
24 23 24 24 24 24 24 22 22 19 16 15 14 14 14 10 7 2 4 8 17 14 12 13 12 7 4 5 5 3 9 6 2 2 2 2 2 3 12 9 10 5 5 5 8
27 28 28 27 25 26 24 24 19 19 17 16 15 14 11 10 17 15 12 7 12 14 15 14 13 8 5 5 4 4 3 4 8 7 9 9 10 9 16 18 16 16 16 18 18
26 27 30 32 30 28 25 22 19 21 19 17 15 15 12 8 14 15 14 13 13 15 15 16 8 11 3 4 5 1 4 8 9 10 7 5 3 4 1 6 3 6 0 1 6
28 28 29 30 32 29 26 23 20 21 21 17 15 15 16 26 12 11 12 14 16 15 14 14 13 9 5 1 3 2 5 6 7 5 6 5 6 9 20 14 2 10 3 8 7
27 29 27 26 23 23 25 23 24 23 21 17 14 13 12 14 20 27 16 15 16 16 14 13 12 8 4 3 3 1 1 3 0 5 2 6 7 2 4 4 2 10 16 13 10
23 26 28 20 19 22 25 25 25 24 22 19 12 11 11 10 22 21 21 20 16 14 12 10 10 5 5 5 3 1 4 5 7 5 3 5 6 5 3 11 15 17 17 16 14
22 23 23 23 23 24 26 24 28 31 25 15 13 4 20 14 16 19 19 17 14 15 10 8 6 3 2 5 9 7 5 5 5 2 4 4 9 10 8 12 11 12 11 8 6
23 24 20 15 18 17 13 18 11 10 21 18 17 21 9 15 8 14 21 19 12 12 7 7 4 11 16 13 3 4 4 5 3 1 2 6 6 13 11 5 4 3 3 4 4
21 19 19 17 20 21 15 13 8 6 9 36 32 30 18 14 9 13 23 15 9 7 7 3 15 10 6 7 5 4 4 5 3 1 1 5 12 12 6 4 5 3 1 1 1
26 16 17 19 15 16 16 19 21 23 8 10 37 31 26 22 14 23 28 14 5 8 14 10 4 12 13 6 8 5 8 5 4 0 2 5 8 5 2 3 5 4 3 2 1
30 30 27 23 18 13 19 17 15 14 5 5 12 18 25 16 7 19 31 14 6 14 6 8 3 5 8 9 8 7 8 5 4 3 4 2 5 5 3 5 5 7 6 4 3
27 27 21 17 19 26 22 19 19 12 6 4 7 5 17 18 16 16 31 18 13 7 8 9 5 8 5 5 10 2 5 6 3 3 4 1 2 5 1 6 7 8 9 7 4
37 29 24 23 25 24 20 16 16 6 7 5 2 2 7 6 2 11 15 11 6 4 1 2 4 2 4 4 5 11 7 6 4 2 2 5 5 5 5 6 4 4 11 7 6
31 34 26 23 23 18 16 11 5 7 3 5 4 6 6 6 5 7 15 11 8 6 8 4 3 4 3 9 3 3 8 2 1 2 6 1 1 8 4 5 4 9 12 7 5
33 29 35 27 23 19 13 4 10 4 6 1 1 5 5 7 4 8 10 9 9 1 5 10 5 10 6 5 8 6 5 5 7 4 3 2 7 6 4 2 6 9 10 6 4
31 29 31 32 26 16 9 9 5 5 2 6 3 3 5 4 4 4 9 7 12 11 9 7 6 3 2 3 5 6 6 4 6 2 3 3 6 7 4 1 1 6 7 6 3
27 30 27 24 19 16 6 16 6 4 3 3 4 3 6 6 7 11 10 5 6 14 1 6 3 3 3 4 1 4 5 4 0 3 4 4 5 6 5 7 4 3 9 7 3
19 10 13 10 19 16 6 8 7 14 9 8 7 5 7 5 6 5 9 2 11 15 7 5 3 4 6 6 8 4 3 1 4 2 5 1 6 6 7 9 10 8 11 7 4
14 3 4 14 7 4 8 6 7 3 11 7 4 5 6 7 7 9 11 3 1 14 9 4 4 4 3 3 0 2 6 4 4 5 1 3 6 1 5 6 13 13 8 7 5
4 7 10 13 3 5 3 4 3 2 5 4 7 8 3 6 5 9 8 3 7 10 12 7 4 5 2 1 3 5 4 3 4 3 6 5 5 2 1 1 8 8 7 6 7
5 3 6 13 12 1 2 5 5 7 7 6 5 5 3 5 3 6 4 4 8 5 10 14 2 4 6 3 4 5 7 8 4 3 5 7 3 3 6 6 6 10 8 9 9
9 3 4 2 5 4 2 2 5 4 7 6 5 7 4 4 2 3 2 4 1 11 3 4 4 3 3 4 3 4 7 13 13 5 8 3 9 5 11 11 13 13 7 9 10
5 4 4 2 2 4 6 4 10 5 4 2 5 6 5 4 1 3 4 2 3 2 2 3 3 2 2 2 3 1 4 4 7 2 6 2 8 7 2 6 9 18 13 11 9
8 8 4 1 2 2 2 4 6 3 7 6 5 3 1 3 4 0 5 5 4 4 2 3 5 2 2 2 1 6 9 11 6 5 12 11 10 7 3 4 11 14 13 9 3
Wind_Direction
327 319 315 312 308 303 297 294 294 293 286 285 281 281 282 279 274 272 267 259 256 250 251 249 234 209 198 194 170 152 73 215 236 165 243 337 342 214 211 215 201 223 249 255 265
312 317 316 308 302 299 295 292 286 283 286 286 283 281 283 285 280 273 269 263 250 236 235 230 222 195 193 192 188 129 151 219 209 192 207 224 206 311 316 107 259 257 267 267 247
305 303 303 304 302 296 292 291 286 285 280 280 282 282 282 288 291 276 268 244 239 232 224 217 199 191 209 181 194 179 214 232 261 229 203 191 270 255 256 237 244 263 289 266 237
296 295 296 297 294 293 290 288 286 280 280 280 280 277 280 269 258 222 283 243 220 224 217 197 184 183 188 207 195 197 240 237 310 249 267 248 214 264 244 242 271 272 252 256 237
293 291 289 285 288 284 284 285 285 286 278 282 281 275 271 248 244 259 276 261 215 215 203 197 190 177 189 196 172 223 255 236 237 239 260 265 248 243 259 264 261 265 260 262 263
301 296 288 282 279 278 273 275 276 276 280 281 279 271 253 242 260 251 248 224 210 199 201 200 211 211 225 205 177 256 268 272 273 255 242 219 269 187 351 146 281 223 113 341 273
314 308 296 287 278 273 264 263 263 266 278 280 270 260 248 246 258 246 237 222 217 215 214 219 216 192 178 263 246 308 316 313 240 230 221 185 275 232 261 268 140 127 33 339 321
319 317 312 295 287 268 260 258 255 260 271 275 265 250 251 257 247 247 235 220 220 215 219 217 216 204 205 155 23 9 48 293 319 153 193 156 260 179 76 148 258 309 314 315 305
313 313 319 296 278 273 265 256 254 257 260 262 248 232 266 247 235 236 229 222 212 206 201 200 195 185 145 109 359 278 232 216 310 203 159 180 256 208 133 336 314 316 315 312 302
301 307 315 320 299 261 258 256 253 251 245 213 202 219 244 231 233 222 209 207 189 183 162 175 176 137 102 147 220 193 216 229 235 229 197 216 259 274 285 324 318 320 323 330 337
305 306 310 315 308 309 294 242 255 226 198 193 199 205 269 210 196 202 197 184 170 171 165 193 171 201 200 202 118 143 177 209 215 167 233 235 261 270 294 293 308 330 357 7 17
298 308 303 301 300 315 299 267 235 287 253 228 230 235 227 202 177 192 188 176 177 184 137 129 233 212 184 180 192 169 185 224 271 159 264 323 276 258 246 221 211 228 253 7 64
297 286 299 297 312 295 295 280 282 271 267 235 222 219 216 211 204 188 185 193 194 190 192 194 195 196 184 164 187 213 210 183 218 24 38 331 283 261 227 188 198 205 207 206 201
283 301 303 319 314 311 310 315 313 271 252 224 198 228 209 197 235 205 191 177 214 209 175 244 208 144 189 201 158 214 185 148 140 111 243 359 280 290 217 228 213 206 202 178 147
311 280 285 296 306 303 303 296 302 284 256 137 166 205 189 173 141 189 186 187 204 173 157 211 194 168 182 186 167 197 113 110 95 93 32 211 42 261 83 245 223 214 201 185 196
305 299 274 276 291 299 300 281 283 231 250 156 111 190 141 176 115 128 159 167 152 161 254 323 308 179 168 68 123 142 90 64 60 80 298 204 175 252 194 213 171 173 191 195 254
301 299 282 256 270 296 295 307 245 247 118 222 191 166 196 168 155 184 169 169 167 153 193 136 191 307 152 89 109 122 144 141 196 180 230 238 130 259 240 217 199 169 178 206 232
309 307 294 250 263 292 289 251 250 260 232 24 148 149 195 154 187 183 162 185 229 151 144 177 216 168 186 166 177 183 171 166 193 203 221 103 229 249 220 152 127 142 165 191 237
310 312 294 252 254 265 225 222 236 242 151 143 60 202 189 185 152 166 195 206 198 185 185 175 217 101 120 117 146 169 203 120 101 46 50 206 280 288 144 9 131 168 171 183 212
302 306 285 280 261 196 199 228 218 223 128 107 217 219 204 185 181 186 169 199 206 185 228 173 120 170 121 114 43 206 158 134 131 171 232 274 276 242 212 216 210 225 194 190 201
297 283 289 234 176 170 207 225 231 265 227 190 205 192 228 183 209 207 193 216 201 186 156 131 119 127 144 205 163 153 189 150 123 129 169 193 256 213 209 192 185 199 191 189 205
278 238 220 198 185 197 220 196 236 259 229 242 228 220 201 194 206 208 212 225 265 151 189 181 120 153 176 237 187 96 186 169 149 217 150 142 271 268 250 193 170 179 184 202 225
224 254 225 219 210 219 285 246 278 239 235 263 212 216 177 200 230 193 189 170 178 166 173 177 153 118 79 354 175 204 183 141 118 96 198 146 256 359 24 307 191 189 193 213 232
255 257 235 212 265 205 184 242 233 218 262 246 233 198 172 207 247 182 153 173 174 169 146 156 121 171 178 172 134 179 186 186 154 140 166 220 269 288 244 227 222 215 224 224 231
219 242 222 222 261 230 126 272 254 237 230 235 279 216 191 216 192 155 129 133 121 146 99 120 148 122 71 72 50 162 186 188 206 186 192 247 208 224 208 210 215 207 239 230 239
224 218 220 259 217 195 218 234 249 291 234 254 234 222 191 188 165 190 146 175 170 131 89 91 116 149 97 43 60 235 203 192 230 234 278 159 265 225 184 191 212 222 214 235 247
245 240 217 240 193 147 217 206 245 276 252 218 213 220 314 260 158 306 158 136 125 127 128 115 140 139 141 341 309 295 198 189 194 213 217 226 242 156 221 225 210 202 215 233 233